| time (UTC) | temp C | wind direction | speed KPH | gust KPH | rain 1hr cm | rain 24hr cm | rain mn cm | humidity % | barometer mb |
| 20260509182211 | 24 | 147 | 0.0 | 1.6 | 0.00 | 0.00 | 0.00 | 34 | 1022.4 |
| 20260509181211 | 24 | 70 | 1.6 | 4.8 | 0.00 | 0.00 | 0.00 | 33 | 1022.4 |
| 20260509180212 | 24 | 230 | 0.0 | 4.8 | 0.00 | 0.00 | 0.00 | 35 | 1022.4 |
| 20260509175310 | 23 | 118 | 0.0 | 1.6 | 0.00 | 0.00 | 0.00 | 36 | 1022.4 |
| 20260509174313 | 23 | 224 | 1.6 | 1.6 | 0.00 | 0.00 | 0.00 | 37 | 1022.5 |
| 20260509173312 | 23 | 284 | 0.0 | 3.2 | 0.00 | 0.00 | 0.00 | 36 | 1022.3 |
| 20260509172326 | 22 | 135 | 1.6 | 3.2 | 0.00 | 0.00 | 0.00 | 37 | 1022.4 |
| 20260509171314 | 22 | 157 | 1.6 | 3.2 | 0.00 | 0.00 | 0.00 | 35 | 1022.3 |
| 20260509170412 | 22 | 157 | 3.2 | 3.2 | 0.00 | 0.00 | 0.00 | 35 | 1022.4 |
| 20260509165412 | 22 | 157 | 1.6 | 1.6 | 0.00 | 0.00 | 0.00 | 37 | 1022.5 |
| 20260509164413 | 21 | 157 | 0.0 | 0.0 | 0.00 | 0.00 | 0.00 | 40 | 1022.5 |
| 20260509163412 | 20 | 202 | 0.0 | 0.0 | 0.00 | 0.00 | 0.00 | 41 | 1022.6 |
| 20260509162411 | 20 | 157 | 0.0 | 1.6 | 0.00 | 0.00 | 0.00 | 44 | 1022.4 |
| 20260509161414 | 18 | 135 | 1.6 | 3.2 | 0.00 | 0.00 | 0.00 | 48 | 1022.6 |
| 20260509160414 | 17 | 135 | 0.0 | 3.2 | 0.00 | 0.00 | 0.00 | 51 | 1022.6 |
| 20260509154412 | 15 | 135 | 0.0 | 1.6 | 0.00 | 0.00 | 0.00 | 56 | 1022.6 |
| 20260509152510 | 14 | 67 | 0.0 | 0.0 | 0.00 | 0.00 | 0.00 | 64 | 1022.6 |
| 20260509145512 | 12 | 67 | 0.0 | 0.0 | 0.00 | 0.00 | 0.00 | 64 | 1022.6 |
| 20260509142710 | 11 | 67 | 0.0 | 0.0 | 0.00 | 0.00 | 0.00 | 66 | 1022.4 |
| 20260509140810 | 10 | 67 | 0.0 | 0.0 | 0.00 | 0.00 | 0.00 | 64 | 1022.4 |
| 20260509135811 | 10 | 67 | 0.0 | 0.0 | 0.00 | 0.00 | 0.00 | 64 | 1022.2 |
| 20260509134910 | 10 | 67 | 0.0 | 0.0 | 0.00 | 0.00 | 0.00 | 65 | 1022.1 |
| 20260509133912 | 10 | 67 | 0.0 | 0.0 | 0.00 | 0.00 | 0.00 | 65 | 1022.1 |
| 20260509131912 | 10 | 67 | 0.0 | 0.0 | 0.00 | 0.00 | 0.00 | 65 | 1021.9 |
| 20260509130911 | 10 | 67 | 0.0 | 0.0 | 0.00 | 0.00 | 0.00 | 65 | 1022.1 |
| 20260509125911 | 10 | 67 | 0.0 | 0.0 | 0.00 | 0.00 | 0.00 | 66 | 1022.1 |
| 20260509124013 | 10 | 67 | 0.0 | 0.0 | 0.00 | 0.00 | 0.00 | 67 | 1022.1 |
| 20260509123110 | 10 | 67 | 0.0 | 0.0 | 0.00 | 0.00 | 0.00 | 67 | 1022.1 |
| 20260509121112 | 10 | 67 | 0.0 | 0.0 | 0.00 | 0.00 | 0.00 | 68 | 1022.0 |
| 20260509120112 | 10 | 67 | 0.0 | 0.0 | 0.00 | 0.00 | 0.00 | 68 | 1021.9 |
| 20260509115210 | 10 | 67 | 0.0 | 0.0 | 0.00 | 0.00 | 0.00 | 67 | 1022.0 |
| 20260509114212 | 10 | 67 | 0.0 | 0.0 | 0.00 | 0.00 | 0.00 | 70 | 1021.9 |
| 20260509113227 | 10 | 67 | 0.0 | 0.0 | 0.00 | 0.00 | 0.00 | 70 | 1022.1 |
| 20260509112210 | 10 | 67 | 0.0 | 0.0 | 0.00 | 0.00 | 0.00 | 70 | 1022.2 |
| 20260509111212 | 10 | 67 | 0.0 | 0.0 | 0.00 | 0.00 | 0.00 | 70 | 1022.1 |
| 20260509110211 | 10 | 67 | 0.0 | 0.0 | 0.00 | 0.00 | 0.00 | 70 | 1022.1 |
| 20260509105211 | 10 | 67 | 0.0 | 0.0 | 0.00 | 0.00 | 0.00 | 70 | 1022.1 |
| 20260509104213 | 10 | 67 | 0.0 | 0.0 | 0.00 | 0.00 | 0.00 | 70 | 1022.1 |
| 20260509103212 | 10 | 67 | 0.0 | 0.0 | 0.00 | 0.00 | 0.00 | 70 | 1022.2 |
| 20260509102212 | 10 | 67 | 0.0 | 0.0 | 0.00 | 0.00 | 0.00 | 69 | 1022.2 |
| 20260509101210 | 10 | 67 | 0.0 | 0.0 | 0.00 | 0.00 | 0.00 | 70 | 1022.2 |
| 20260509100212 | 10 | 67 | 0.0 | 0.0 | 0.00 | 0.00 | 0.00 | 70 | 1022.3 |
| 20260509095310 | 10 | 67 | 0.0 | 0.0 | 0.00 | 0.00 | 0.00 | 69 | 1022.4 |
| 20260509094311 | 10 | 67 | 0.0 | 0.0 | 0.00 | 0.00 | 0.00 | 69 | 1022.3 |
| 20260509093313 | 10 | 67 | 0.0 | 0.0 | 0.00 | 0.00 | 0.00 | 68 | 1022.5 |
| 20260509092312 | 10 | 67 | 0.0 | 0.0 | 0.00 | 0.00 | 0.00 | 69 | 1022.4 |
| 20260509091311 | 10 | 67 | 0.0 | 0.0 | 0.00 | 0.00 | 0.00 | 69 | 1022.6 |
| 20260509085410 | 10 | 67 | 0.0 | 0.0 | 0.00 | 0.00 | 0.00 | 69 | 1022.4 |
| 20260509084510 | 11 | 67 | 0.0 | 0.0 | 0.00 | 0.00 | 0.00 | 69 | 1022.6 |
| 20260509083511 | 11 | 67 | 0.0 | 0.0 | 0.00 | 0.00 | 0.00 | 68 | 1022.7 |
| 20260509081511 | 11 | 67 | 0.0 | 0.0 | 0.00 | 0.00 | 0.00 | 69 | 1022.7 |
| 20260509080512 | 11 | 67 | 0.0 | 0.0 | 0.00 | 0.00 | 0.00 | 70 | 1022.8 |
| 20260509075513 | 11 | 67 | 0.0 | 0.0 | 0.00 | 0.00 | 0.00 | 70 | 1022.9 |
| 20260509073610 | 11 | 67 | 0.0 | 0.0 | 0.00 | 0.00 | 0.00 | 68 | 1022.8 |
| 20260509070713 | 11 | 67 | 0.0 | 0.0 | 0.00 | 0.00 | 0.00 | 67 | 1022.9 |
| 20260509065715 | 11 | 67 | 0.0 | 0.0 | 0.00 | 0.00 | 0.00 | 68 | 1022.9 |
| 20260509064715 | 11 | 67 | 0.0 | 0.0 | 0.00 | 0.00 | 0.00 | 68 | 1023.0 |
| 20260509063716 | 11 | 67 | 0.0 | 0.0 | 0.00 | 0.00 | 0.00 | 68 | 1023.2 |
| 20260509062716 | 11 | 67 | 0.0 | 0.0 | 0.00 | 0.00 | 0.00 | 69 | 1023.1 |
| 20260509061716 | 11 | 67 | 0.0 | 0.0 | 0.00 | 0.00 | 0.00 | 71 | 1023.1 |
| 20260509060714 | 11 | 67 | 0.0 | 0.0 | 0.00 | 0.00 | 0.00 | 72 | 1023.0 |
| 20260509055716 | 11 | 67 | 0.0 | 0.0 | 0.00 | 0.00 | 0.00 | 72 | 1023.0 |
| 20260509054730 | 11 | 67 | 0.0 | 0.0 | 0.00 | 0.00 | 0.00 | 73 | 1023.2 |
| 20260509053816 | 11 | 67 | 0.0 | 0.0 | 0.00 | 0.00 | 0.00 | 74 | 1023.1 |
| 20260509052815 | 11 | 67 | 0.0 | 0.0 | 0.00 | 0.00 | 0.00 | 74 | 1023.2 |
| 20260509051914 | 11 | 67 | 0.0 | 0.0 | 0.00 | 0.00 | 0.00 | 74 | 1023.0 |
| 20260509051813 | 11 | 67 | 0.0 | 0.0 | 0.00 | 0.00 | 0.00 | 74 | 1023.1 |
| 20260509050814 | 11 | 67 | 0.0 | 0.0 | 0.00 | 0.00 | 0.00 | 73 | 1023.1 |
| 20260509045815 | 11 | 67 | 0.0 | 0.0 | 0.00 | 0.00 | 0.00 | 73 | 1023.0 |
| 20260509044814 | 12 | 67 | 0.0 | 0.0 | 0.00 | 0.00 | 0.00 | 73 | 1023.0 |
| 20260509043814 | 12 | 67 | 0.0 | 0.0 | 0.00 | 0.00 | 0.00 | 72 | 1023.1 |
| 20260509042914 | 12 | 67 | 0.0 | 0.0 | 0.00 | 0.00 | 0.00 | 71 | 1023.2 |
| 20260509041917 | 12 | 67 | 0.0 | 0.0 | 0.00 | 0.00 | 0.00 | 70 | 1023.0 |
| 20260509040930 | 12 | 67 | 0.0 | 0.0 | 0.00 | 0.00 | 0.00 | 70 | 1023.0 |
| 20260509035914 | 13 | 67 | 0.0 | 0.0 | 0.00 | 0.00 | 0.00 | 71 | 1023.1 |
| 20260509034113 | 13 | 90 | 0.0 | 0.0 | 0.00 | 0.00 | 0.00 | 70 | 1023.1 |
| 20260509033114 | 13 | 90 | 0.0 | 0.0 | 0.00 | 0.00 | 0.00 | 69 | 1023.0 |
| 20260509032117 | 14 | 90 | 0.0 | 0.0 | 0.00 | 0.00 | 0.00 | 67 | 1023.0 |
| 20260509031214 | 15 | 90 | 0.0 | 0.0 | 0.00 | 0.00 | 0.00 | 66 | 1023.0 |
| 20260509030313 | 15 | 90 | 0.0 | 0.0 | 0.00 | 0.00 | 0.00 | 64 | 1023.0 |
| 20260509025316 | 15 | 90 | 0.0 | 0.0 | 0.00 | 0.00 | 0.00 | 64 | 1023.0 |
| 20260509023414 | 16 | 90 | 0.0 | 0.0 | 0.00 | 0.00 | 0.00 | 62 | 1023.0 |
| 20260509022414 | 16 | 90 | 0.0 | 0.0 | 0.00 | 0.00 | 0.00 | 60 | 1022.8 |
| 20260509020416 | 16 | 90 | 0.0 | 0.0 | 0.00 | 0.00 | 0.00 | 59 | 1022.9 |
| 20260509015416 | 17 | 90 | 0.0 | 0.0 | 0.00 | 0.00 | 0.00 | 58 | 1022.9 |
| 20260509014514 | 17 | 135 | 0.0 | 0.0 | 0.00 | 0.00 | 0.00 | 57 | 1022.9 |
| 20260509013515 | 17 | 135 | 0.0 | 0.0 | 0.00 | 0.00 | 0.00 | 55 | 1022.9 |
| 20260509012514 | 17 | 112 | 0.0 | 0.0 | 0.00 | 0.00 | 0.00 | 53 | 1023.0 |
| 20260509011513 | 18 | 22 | 0.0 | 3.2 | 0.00 | 0.00 | 0.00 | 51 | 1023.0 |
| 20260509010531 | 18 | 157 | 0.0 | 0.0 | 0.00 | 0.00 | 0.00 | 49 | 1023.0 |
| 20260509005614 | 18 | 157 | 0.0 | 0.0 | 0.00 | 0.00 | 0.00 | 48 | 1023.0 |
| 20260509004614 | 18 | 270 | 0.0 | 0.0 | 0.00 | 0.00 | 0.00 | 46 | 1023.1 |
| 20260509003615 | 18 | 202 | 0.0 | 0.0 | 0.00 | 0.00 | 0.00 | 43 | 1023.1 |
| 20260509002632 | 19 | 180 | 0.0 | 1.6 | 0.00 | 0.00 | 0.00 | 41 | 1023.2 |
| 20260509001615 | 19 | 45 | 0.0 | 0.0 | 0.00 | 0.00 | 0.00 | 39 | 1023.2 |
| 20260509000614 | 19 | 45 | 0.0 | 0.0 | 0.00 | 0.00 | 0.00 | 37 | 1023.2 |
| 20260508235713 | 20 | 79 | 0.0 | 6.4 | 0.00 | 0.00 | 0.00 | 35 | 1023.3 |
| 20260508234715 | 20 | 230 | 0.0 | 1.6 | 0.00 | 0.00 | 0.00 | 35 | 1023.3 |
| 20260508233715 | 20 | 1 | 0.0 | 3.2 | 0.00 | 0.00 | 0.00 | 35 | 1023.2 |
| 20260508232714 | 20 | 154 | 0.0 | 6.4 | 0.00 | 0.00 | 0.00 | 36 | 1023.4 |
| 20260508231714 | 20 | 202 | 0.0 | 1.6 | 0.00 | 0.00 | 0.00 | 35 | 1023.3 |
| 20260508230715 | 20 | 135 | 0.0 | 1.6 | 0.00 | 0.00 | 0.00 | 36 | 1023.4 |
| 20260508225715 | 20 | 232 | 0.0 | 4.8 | 0.00 | 0.00 | 0.00 | 36 | 1023.5 |
| 20260508223814 | 21 | 72 | 0.0 | 1.6 | 0.00 | 0.00 | 0.00 | 37 | 1023.6 |
| 20260508222814 | 21 | 161 | 0.0 | 4.8 | 0.00 | 0.00 | 0.00 | 38 | 1023.7 |
| 20260508221815 | 21 | 165 | 3.2 | 8.0 | 0.00 | 0.00 | 0.00 | 37 | 1023.8 |
| 20260508220915 | 21 | 352 | 1.6 | 4.8 | 0.00 | 0.00 | 0.00 | 36 | 1023.8 |
| 20260508215013 | 21 | 259 | 0.0 | 3.2 | 0.00 | 0.00 | 0.00 | 34 | 1023.8 |
| 20260508214016 | 21 | 121 | 0.0 | 3.2 | 0.00 | 0.00 | 0.00 | 33 | 1023.9 |
| 20260508212131 | 21 | 166 | 4.8 | 6.4 | 0.00 | 0.00 | 0.00 | 33 | 1024.3 |
| 20260508211215 | 21 | 179 | 3.2 | 6.4 | 0.00 | 0.00 | 0.00 | 32 | 1024.1 |
| 20260508210214 | 21 | 190 | 0.0 | 3.2 | 0.00 | 0.00 | 0.00 | 30 | 1024.1 |
| 20260508205217 | 22 | 174 | 3.2 | 6.4 | 0.00 | 0.00 | 0.00 | 30 | 1024.1 |
| 20260508204229 | 23 | 155 | 0.0 | 6.4 | 0.00 | 0.00 | 0.00 | 29 | 1024.2 |
| 20260508203229 | 23 | 157 | 0.0 | 4.8 | 0.00 | 0.00 | 0.00 | 30 | 1024.2 |
| 20260508201214 | 22 | 225 | 3.2 | 3.2 | 0.00 | 0.00 | 0.00 | 29 | 1024.2 |
| 20260508200214 | 22 | 202 | 1.6 | 3.2 | 0.00 | 0.00 | 0.00 | 29 | 1024.5 |
| 20260508194215 | 23 | 168 | 3.2 | 6.4 | 0.00 | 0.00 | 0.00 | 30 | 1024.5 |
| 20260508193216 | 22 | 225 | 1.6 | 3.2 | 0.00 | 0.00 | 0.00 | 28 | 1024.6 |
| 20260508192213 | 23 | 175 | 4.8 | 9.7 | 0.00 | 0.00 | 0.00 | 29 | 1024.4 |
| 20260508191213 | 22 | 181 | 1.6 | 11.3 | 0.00 | 0.00 | 0.00 | 29 | 1024.5 |
| 20260508184214 | 23 | 170 | 1.6 | 4.8 | 0.00 | 0.00 | 0.00 | 26 | 1024.6 |
| 20260508183213 | 22 | 157 | 0.0 | 0.0 | 0.00 | 0.00 | 0.00 | 25 | 1024.8 |